SCP
0 0 0 0 0 0 0 0 0 0 0 0 0 0 0 0 0 0 0 0 0 0
0 0 0 0 0 0 0 0 0 0 0 0 0 0 0 0 0 0 0 0 0 0
0 0 0 0 0 0 0 0 0 0 0 0 0 0 0 0 0 0 0 0 0 0
0 0 0 0 0 0 0 0 0 0 0 0 0 0 0 0 0 0 0 0 0 0
0 0 0 0 0 0 0 0 0 0 0 0 0 0 0 0 0 0 0 0 0 0
0 0 0 0 0 0 0 0 0 0 0 0 0 0 0 0 0 0 0 0 0 0
0 0 0 0 0 0 0 0 0 0 0 0 0 0 0 0 0 0 0 0 0 0
0 0 0 0 0 0 0 0 0 0 0 0 0 0 0 0 0 0 0 0 0 0
0 0 0 0 0 0 0 0 0 0 0 0 0 0 0 0 0 0 0 0 0 0
0 0 0 0 0 0 0 0 0 0 0 0 0 0 0 0 0 0 0 0 0 0
0 0 0 0 0 0 0 0 0 0 0 0 0 0 0 0 0 0 0 0 0 0
0 0 0 0 0 0 0 0 0 0 0 0 0 0 0 0 0 0 0 0 0 0
0 0 0 0 0 0 0 0 0 0 0 0 0 0 0 0 0 0 0 0 0 0
0 0 0 0 0 0 0 0 0 0 0 0 0 0 0 0 0 0 0 0 0 0
Wind_Speed_500mb
40 43 45 46 51 54 56 56 52 55 64 71 78 81 83 87 93 94 99 99 103 107
19 21 22 27 35 40 42 43 46 52 58 65 72 80 85 92 96 95 100 93 97 107
3 7 12 17 20 29 35 39 44 49 55 60 66 73 79 85 87 90 95 93 99 92
8 14 18 22 25 32 40 44 48 50 53 57 59 61 67 75 80 85 85 90 94 93
21 27 30 34 39 42 46 49 52 58 60 60 59 60 63 69 73 76 80 90 95 90
34 38 39 44 49 52 55 59 62 61 61 66 65 62 62 65 66 69 68 70 77 83
43 46 50 53 55 59 64 69 69 67 66 69 68 65 63 64 68 69 68 68 72 74
43 49 54 59 64 67 70 73 74 76 76 71 69 66 65 66 68 70 68 67 72 72
44 48 53 57 61 62 63 63 67 71 71 68 67 63 64 67 68 68 66 69 68 69
48 51 53 58 62 63 62 63 64 64 65 66 64 61 62 63 67 67 67 68 68 69
53 55 55 57 59 62 65 67 65 64 63 65 63 60 60 60 65 66 66 67 68 69
54 58 59 60 60 59 62 62 64 66 65 66 64 58 57 56 62 64 65 66 68 66
56 60 61 63 66 64 60 62 63 65 64 64 66 60 58 52 62 65 65 65 66 65
57 58 59 62 60 66 70 67 62 62 64 64 62 60 54 52 63 64 63 64 64 61
Wind_Direction_500mb
253 253 254 257 260 263 266 268 266 262 263 265 266 264 263 263 267 266 265 268 254 269
250 253 258 260 262 265 268 270 270 264 259 256 257 260 263 264 265 266 267 263 258 268
208 257 268 274 288 289 286 282 276 272 268 264 260 258 259 261 264 266 268 264 260 266
263 274 278 285 286 287 287 288 287 285 278 272 269 264 261 262 265 266 267 264 262 264
285 284 288 290 289 287 287 287 287 282 281 280 275 271 266 265 265 266 266 262 262 262
285 292 292 291 288 288 289 290 287 286 287 285 279 275 272 269 267 267 268 266 263 264
291 291 295 296 294 291 290 289 288 287 287 283 278 273 271 271 270 269 267 264 265 266
292 293 295 295 293 291 288 287 286 283 281 279 274 272 273 273 272 270 269 264 263 264
305 301 300 298 297 295 294 292 286 282 280 278 274 274 272 272 270 269 267 266 265 265
313 311 308 305 303 302 298 292 288 285 282 279 278 276 274 272 271 267 264 263 264 265
311 309 308 306 305 302 299 296 292 287 284 281 278 275 273 271 268 265 263 263 265 266
317 314 311 307 304 303 299 297 296 292 286 281 279 275 272 269 267 264 264 264 265 265
320 318 318 315 309 304 299 298 296 292 289 284 280 275 272 267 266 265 266 268 267 266
323 321 318 314 313 311 307 301 296 294 293 289 285 282 275 265 264 266 268 268 267 267
Wind_Speed_850mb
40 43 45 46 51 54 56 56 52 55 64 71 78 81 83 87 93 94 99 99 103 107
19 21 22 27 35 40 42 43 46 52 58 65 72 80 85 92 96 95 100 93 97 107
3 7 12 17 20 29 35 39 44 49 55 60 66 73 79 85 87 90 95 93 99 92
8 14 18 22 25 32 40 44 48 50 53 57 59 61 67 75 80 85 85 90 94 93
21 27 30 34 39 42 46 49 52 58 60 60 59 60 63 69 73 76 80 90 95 90
34 38 39 44 49 52 55 59 62 61 61 66 65 62 62 65 66 69 68 70 77 83
43 46 50 53 55 59 64 69 69 67 66 69 68 65 63 64 68 69 68 68 72 74
43 49 54 59 64 67 70 73 74 76 76 71 69 66 65 66 68 70 68 67 72 72
44 48 53 57 61 62 63 63 67 71 71 68 67 63 64 67 68 68 66 69 68 69
48 51 53 58 62 63 62 63 64 64 65 66 64 61 62 63 67 67 67 68 68 69
53 55 55 57 59 62 65 67 65 64 63 65 63 60 60 60 65 66 66 67 68 69
54 58 59 60 60 59 62 62 64 66 65 66 64 58 57 56 62 64 65 66 68 66
56 60 61 63 66 64 60 62 63 65 64 64 66 60 58 52 62 65 65 65 66 65
57 58 59 62 60 66 70 67 62 62 64 64 62 60 54 52 63 64 63 64 64 61
Wind_Direction_850mb
253 253 254 257 260 263 266 268 266 262 263 265 266 264 263 263 267 266 265 268 254 269
250 253 258 260 262 265 268 270 270 264 259 256 257 260 263 264 265 266 267 263 258 268
208 257 268 274 288 289 286 282 276 272 268 264 260 258 259 261 264 266 268 264 260 266
263 274 278 285 286 287 287 288 287 285 278 272 269 264 261 262 265 266 267 264 262 264
285 284 288 290 289 287 287 287 287 282 281 280 275 271 266 265 265 266 266 262 262 262
285 292 292 291 288 288 289 290 287 286 287 285 279 275 272 269 267 267 268 266 263 264
291 291 295 296 294 291 290 289 288 287 287 283 278 273 271 271 270 269 267 264 265 266
292 293 295 295 293 291 288 287 286 283 281 279 274 272 273 273 272 270 269 264 263 264
305 301 300 298 297 295 294 292 286 282 280 278 274 274 272 272 270 269 267 266 265 265
313 311 308 305 303 302 298 292 288 285 282 279 278 276 274 272 271 267 264 263 264 265
311 309 308 306 305 302 299 296 292 287 284 281 278 275 273 271 268 265 263 263 265 266
317 314 311 307 304 303 299 297 296 292 286 281 279 275 272 269 267 264 264 264 265 265
320 318 318 315 309 304 299 298 296 292 289 284 280 275 272 267 266 265 266 268 267 266
323 321 318 314 313 311 307 301 296 294 293 289 285 282 275 265 264 266 268 268 267 267